Other Public Products
Issued by NWS Grand Forks, ND

Home | Current Version | Previous Version | Graphics & Text | Print | Product List | Glossary On
Versions: 1 2 3 4 5 6 7 8 9 10 11 12 13 14 15 16 17 18 19 20 21 22 23 24 25 26 27 28 29 30 31 32 33 34 35 36 37 38 39 40 41 42 43 44 45 46 47 48 49 50
000
FPUS83 KFGF 222331
OPUFGF
PRAIRIE TO PINES WEATHER ROUNDUP
NATIONAL WEATHER SERVICE EASTERN NORTH DAKOTA/GRAND FORKS ND
600 PM CDT FRI SEP 22 2017

 **SATELLITE DATA USED TO AUGMENT SKY COVER AT AUTOMATED STATIONS**
 *****  WEATHER ACROSS EASTERN NORTH DAKOTA  *****

CITY           SKY/WX    TMP DP  RH WIND       PRES   REMARKS
GRAND FORKS    CLOUDY    72  63  73 N15       29.67R
GRAND FORKS AF CLOUDY    68  58  71 N16       29.70R
GRAND CITY NWS NOT AVBL
BUXTON           N/A     75  65  70 N9          N/A
DEVILS LAKE    CLOUDY    54  48  82 N18       29.80R
FARGO          CLOUDY    86  73  65 SE10      29.62S HX  93
WAHPETON ARPT    N/A     86  66  51 S10       29.64S
$$

 *****  WEATHER ACROSS CENTRAL AND WESTERN NORTH DAKOTA  *****

CITY           SKY/WX    TMP DP  RH WIND       PRES   REMARKS
JAMESTOWN      CLOUDY    62  54  74 NW17      29.72R
BISMARCK       CLOUDY    52  46  80 N15G21    29.86R
MINOT          CLOUDY    50  43  77 NW18G26   29.94R
MINOT AFB      CLOUDY    49  42  77 N14       29.93R
GARRISON         N/A     48  42  80 N20G28    29.92R
WILLISTON      CLOUDY    48  40  73 N13       30.03R
DICKINSON      NOT AVBL
HETTINGER      CLOUDY    49  37  63 N15       29.94R
$$

 *****  OTHER OBSERVATIONS NORTHEAST NORTH DAKOTA  *****

CITY           SKY/WX    TMP DP  RH WIND       PRES   REMARKS
WALHALLA       FAIR     N/A N/A N/A N20G26    29.81F
LANGDON        CLOUDY    54  54 100 NE24G33   29.79F
CAVALIER       MOCLDY    54  50  87 N23G35    29.77F
GRAFTON        CLOUDY    57  52  82 N24       29.75S
CANDO          CLOUDY    52  52 100 N17G28    29.87R
FORT TOTTEN      N/A     54  50  87 N6        29.95S
ROLLA          CLOUDY    48  48 100 N21       29.89R
RUGBY          CLOUDY    50  46  87 N13       29.88R
 ***** THE ABOVE OBSERVATIONS ARE NON NWS ARE NOT QUALITY
        CONTROLLED AND MAY MIS-REPORT RAIN FOR SNOW...
$$

 *****  OTHER OBSERVATIONS SOUTHEAST NORTH DAKOTA *****

CITY           SKY/WX    TMP DP  RH WIND       PRES   REMARKS
COOPERSTOWN    MOCLDY    63  55  77 N13G20    29.70F
VALLEY CITY    MOCLDY    68  63  83 NW12      29.70R
OAKES          NOT AVBL
GWINNER        PTCLDY    84  64  51 SW13G20   29.64R
SHEYENNE NWR     N/A     88  71  56 S9        29.95S HX  93
BUFFALO          N/A     75  58  54 NE9         N/A
WYNDMERE       NOT AVBL
 ***** THE ABOVE OBSERVATIONS ARE NON NWS ARE NOT QUALITY
       CONTROLLED AND MAY MIS-REPORT RAIN FOR SNOW...
$$

  *****  WEATHER ACROSS NORTHERN MINNESOTA  *****

CITY           SKY/WX    TMP DP  RH WIND       PRES   REMARKS
FLAG ISLAND    LGT RAIN  70  59  68 NE9       29.74F
WARROAD        CLOUDY    64  61  88 NE8       29.74F
ROSEAU         PTSUNNY   66  61  82 E13       29.72F
HALLOCK        LGT RAIN  63  57  82 N12       29.74R
THF RVR FALLS  CLOUDY    74  68  81 E9        29.68F
HALSTAD        NOT AVBL
FOSSTON        PTSUNNY   79  68  69 S7        29.70R
BAUDETTE       CLOUDY    71  66  84 NE7       29.74F
WASKISH        CLOUDY    72  70  94 E7        29.74F
CROOKSTON      FAIR      77  68  73 E7        29.65F
$$
  *****  WEATHER ACROSS CENTRAL AND WEST MINNESOTA  *****

CITY           SKY/WX    TMP DP  RH WIND       PRES   REMARKS
BEMIDJI        CLOUDY    77  72  84 SE6       29.72S
PARK RAPIDS    PTSUNNY   83  73  72 S14       29.71F
WADENA         FAIR      84  72  65 SE14      29.69F
DETROIT LAKES  FAIR      82  72  69 S10       29.69S
MOORHEAD       FAIR      86  72  62 SE12      29.63F HX  92
FERGUS FALLS   PTSUNNY   88  70  55 S12       29.65S HX  92
ELBOW LAKE     FAIR      85  71  62 S13G18    29.68S HAZE    HX  90
MORRIS MN      FAIR      90  70  51 S14       29.67R HX  95
STAPLES        FAIR      82  72  69 S13       29.71S
WHEATON        FAIR      88  66  48 S9        29.65S HX  90
$$
  *****  WEATHER ELSEWHERE ACROSS MINNESOTA  *****

CITY           SKY/WX    TMP DP  RH WIND       PRES   REMARKS
DULUTH         FAIR      75  69  81 SE8       29.82F
INTRNTL FALLS  CLOUDY    74  67  78 SE5       29.77R
ELY            FAIR      77  66  69 S7        29.81F
CLOQUET        FAIR      81  72  74 SE8       29.80S
BRAINERD       FAIR      83  72  69 SE9       29.73F
HIBBING        FAIR      77  71  82 SE7       29.77F
ALEXANDRIA     NOT AVBL
SAINT CLOUD    FAIR      88  73  61 SE13      29.74S HX  95
MINNEAPOLIS    FAIR      93  70  46 S14G26    29.79S HX  99
$$

  *****  WEATHER ACROSS SOUTH DAKOTA  *****

CITY           SKY/WX    TMP DP  RH WIND       PRES   REMARKS
SIOUX FALLS    PTSUNNY   89  71  55 S20G25    29.70F HX  95
BROOKINGS      RAIN      82  72  69 S29G41    29.73R
WATERTOWN      FAIR      84  68  58 W14       29.68R
HURON          FAIR      81  56  42 W17       29.69R
SISSETON         N/A     89  71  55 S10       29.63S HX  95
ABERDEEN       FAIR      78  61  55 W20G28    29.67R
MITCHELL       FAIR      80  57  45 W13       29.71R
PIERRE         PTSUNNY   61  49  64 NW24      29.81R
MOBRIDGE       CLOUDY    54  47  77 N18G25    29.81R
RAPID CITY     SUNNY     55  37  50 N26G33    29.88R
$$

  *****  SOME WEATHER IN NEARBY STATES *****

CITY           SKY/WX    TMP DP  RH WIND       PRES   REMARKS
GLASGOW MT     CLOUDY    48  39  71 N3        30.05S
GREAT FALLS MT LGT RAIN  37  35  92 NE5       30.06S
CHEYENNE WY    FAIR      59  36  42 NE21G29   29.88F
SCOTTSBLUFF NE FAIR      71  45  39 NE7       29.83R
OMAHA NE       FAIR      92  68  45 SE21G31   29.81S HX  96
DES MOINES IA  FAIR      89  66  46 S17       29.90R HX  91
DAVENPORT IA   FAIR      88  65  46 S9        30.00S HX  90
CHICAGO IL     FAIR      92  64  39 SW8       30.01S HX  93
EAU CLAIRE WI  FAIR      90  66  45 S13       29.88R HX  92
LA CROSSE WI   FAIR      92  67  43 S12G24    29.90R HX  95
$$

  *****  SOME NATIONAL WEATHER *****

CITY           SKY/WX    TMP DP  RH WIND       PRES   REMARKS
LA GUARDIA NY  MOCLDY    78  58  49 N15G22    29.93S
RALEIGH NC     FAIR      81  61  50 NE3       30.00R
ATLANTA GA     FAIR      84  64  50 E6        30.00S
NEW ORLEANS LA NOT AVBL
OKLAHOMA CITY  FAIR      86  67  52 S16G25    29.90F
ALBUQUERQUE NM PTSUNNY   83  35  18 SW21G36   29.86S
SALT LAKE CITY CLOUDY    52  39  61 NW12      29.93R
LOS ANGELES CA FAIR      70  59  68 W16       29.82F
BOISE ID       CLOUDY    49  41  74 NE3       29.97S
SEATTLE WA     PTSUNNY   67  46  47 NW8       30.03F
$$

*** WEATHER ACROSS MANITOBA...SASKATCHEWAN AND ONTARIO ***
                ***ONTARIO***

CITY           SKY/WX    TMP DP  RH WIND       PRES   REMARKS
GERALDTON      CLOUDY    68  66  94 S7        29.94R FOG
THUNDER BAY    PTCLDY    66  63  88 E12       29.90R
SIOUX LOOKOUT  CLOUDY    73  63  68 E6        29.85R
TORONTO        PTCLDY    73  54  49 S3        30.10R
BIG TROUT LK   CLEAR     61  45  55 NW6       29.94R
PICKLE LAKE    PTCLDY    72  50  46 NE2       29.90R
DRYDEN         PTSUNNY   72  63  73 E6        29.82F
KENORA         PTSUNNY   68  55  64 NE7       29.81R
$$
                *** MANITOBA***

CITY           SKY/WX    TMP DP  RH WIND       PRES   REMARKS
BRANDON        LGT RAIN  48  46  93 N8        29.97R
DAUPHIN        RAIN      48  46  93 N6        30.00R
ISLAND LAKE    NOT AVBL
PILOT MOUND      N/A     50  48  93 N16G25      N/A
THE PAS        DRIZZLE   48  41  76 W6        30.04F
THOMPSON       CLOUDY    46  39  76 N12       30.06R
WINNIPEG       CLOUDY    54  50  87 N24G36    29.83F
LYNN LAKE      CLOUDY    43  39  87 NE6       30.11R
CHURCHILL      CLOUDY    41  36  81 N20G26    30.10R
GILLAM         CLOUDY    46  43  87 NE15G21   30.04R
$$
                ***SASKATCHEWAN***

CITY           SKY/WX    TMP DP  RH WIND       PRES   REMARKS
ESTEVAN        CLOUDY    46  45  93 NW6       30.02R
KINDERSLEY     CLOUDY    45  39  81 N10       30.06S
LLOYDMINSTER   CLOUDY    45  37  76 NE5       30.08S
PRINCE ALBERT  PTSUNNY   48  37  66 N8        30.08S
REGINA         LGT RAIN  46  39  76 NW9       30.04S
YORKTON        LGT RAIN  46  43  87 N7        30.02S



USA.gov is the U.S. government's official web portal to all federal, state and local government web resources and services.